GEFSCGP_850_meantemp_114.txt.gz
Temperature
6 5 5 5 6 6 6 6 6 7 8 7 7 7 8 8 8 8 8 9 9 10 10 11 11 11 12 12 12 12 12 12 12 12 13 13 13 13 13 13 13 13 13 13
5 5 6 7 7 7 6 6 6 7 8 8 7 7 7 8 8 8 8 8 9 9 10 10 10 11 11 11 12 12 12 12 12 12 12 13 13 13 13 13 13 13 13 13
5 6 8 8 7 7 7 6 6 7 7 7 7 7 7 8 8 8 8 8 8 9 9 9 10 10 11 11 11 11 11 11 12 12 12 12 12 12 12 12 12 13 13 13
6 7 7 7 7 7 7 8 7 7 7 6 7 6 6 7 7 7 7 8 8 8 9 9 9 10 10 10 11 11 11 11 11 11 11 12 12 12 12 12 12 12 12 12
6 7 7 7 8 8 7 8 8 7 6 6 6 6 6 7 7 7 7 7 7 8 8 9 9 9 10 10 10 10 10 10 11 11 11 11 11 11 11 11 12 12 12 12
6 7 7 7 8 8 8 8 7 7 6 6 6 6 6 6 6 6 6 6 7 7 8 8 8 9 9 9 9 10 10 10 10 10 11 11 11 11 11 11 11 11 11 12
6 7 7 8 7 8 7 6 6 6 5 6 7 6 6 7 7 6 6 6 6 7 7 7 8 8 8 9 9 9 9 10 10 10 10 10 10 10 10 11 11 11 11 11
5 6 7 8 7 7 7 7 6 6 6 6 6 6 6 7 7 7 6 6 6 6 7 7 7 8 8 8 8 9 9 9 9 9 9 10 10 10 10 10 10 10 11 11
5 6 8 8 8 8 7 6 7 6 6 5 6 6 7 7 6 6 6 6 6 6 6 6 7 7 7 7 7 8 8 8 9 9 9 9 9 10 10 10 10 10 10 10
6 6 7 8 8 8 7 7 6 6 6 6 6 6 6 6 6 6 5 6 5 5 6 6 6 6 6 7 7 7 7 8 8 8 8 9 9 9 9 9 9 9 10 10
7 6 6 7 7 6 7 7 6 5 6 6 6 6 6 6 5 5 5 5 5 5 5 5 5 6 6 6 7 7 7 7 8 8 8 8 8 8 9 9 9 9 9 9
6 5 5 6 7 7 7 7 6 6 5 5 5 6 6 5 6 5 5 5 5 5 5 5 5 5 6 6 6 7 7 7 7 7 7 8 8 8 8 8 8 8 8 8
7 5 5 6 6 6 7 7 6 5 4 4 5 5 6 5 5 6 5 5 5 5 5 5 5 5 5 5 6 6 6 7 7 7 7 7 7 7 7 7 7 8 8 8
7 5 5 6 6 6 6 6 6 5 4 4 5 5 5 5 5 5 5 5 5 5 5 5 5 5 5 5 5 5 6 6 6 6 6 6 6 6 6 6 7 7 7 7
6 5 6 6 6 6 6 6 6 5 5 5 5 5 5 5 5 5 5 5 4 4 4 4 4 4 5 5 5 5 5 5 5 6 6 6 6 6 6 6 6 6 6 6
5 5 5 5 6 6 6 6 6 6 6 5 5 5 5 5 5 5 5 4 4 4 4 4 4 4 4 5 5 5 5 5 5 5 5 5 5 5 5 6 6 6 6 6
5 5 5 4 5 5 5 5 5 6 6 6 5 5 5 4 4 4 5 4 4 4 4 4 4 4 4 4 4 4 4 4 4 4 4 4 4 4 4 5 5 5 5 5
5 4 3 3 4 5 6 6 6 6 6 6 6 5 5 5 5 5 5 5 4 4 4 4 4 4 4 3 4 4 4 4 4 4 4 3 4 4 3 3 4 4 4 4
4 4 3 3 4 4 6 6 6 6 6 6 5 5 5 5 4 4 5 5 5 4 4 4 4 3 3 3 3 3 3 3 3 3 3 3 3 3 3 3 3 3 3 3
4 3 3 3 4 5 6 7 7 6 5 6 5 4 4 4 3 3 5 4 4 4 4 3 3 3 3 3 3 3 3 3 3 3 2 2 2 2 2 2 3 2 2 2
4 3 3 3 3 4 5 6 6 6 6 6 6 6 5 4 5 5 5 4 4 4 3 3 3 3 3 2 3 3 2 2 2 2 2 2 2 2 2 2 2 2 2 2
3 2 2 2 3 4 5 5 5 5 7 7 7 6 6 6 5 5 4 4 4 3 3 3 3 2 2 2 2 2 2 2 2 2 2 2 2 1 1 1 1 1 1 1
2 3 2 3 4 5 6 7 7 7 7 7 7 7 6 6 5 5 4 4 3 3 3 3 3 2 2 2 2 2 2 1 1 1 1 1 1 1 1 1 1 1 1 1
2 3 2 3 3 5 6 7 7 7 7 7 7 7 6 5 5 4 4 4 3 3 3 2 2 2 2 2 1 1 1 1 1 1 1 1 1 1 0 0 0 -0 -0 -0
3 3 2 3 3 5 6 7 7 7 7 7 6 6 6 5 5 4 4 4 3 3 3 2 2 2 2 1 1 1 1 1 1 0 0 0 0 0 0 -0 -0 -1 -1 -1
2 3 3 4 5 4 6 8 7 7 7 7 6 6 5 5 5 4 4 3 3 3 2 2 2 2 1 1 1 1 0 0 -0 -0 -0 -0 -0 -0 -0 -1 -0 -1 -1 -1

GEFSCGP_850_meantemp_120.txt.gz
Temperature
5 4 4 4 5 5 5 5 5 6 6 6 5 6 6 7 7 6 7 7 7 8 9 9 9 10 10 10 11 11 11 12 12 12 12 12 12 12 12 13 13 13 13 13
4 4 5 5 5 5 5 5 5 6 7 7 6 6 6 6 6 7 7 7 7 7 8 9 9 9 9 10 10 10 11 11 11 11 12 12 12 12 12 12 12 12 12 12
5 5 6 6 6 5 6 5 5 6 6 6 6 6 6 7 7 7 7 6 6 7 7 8 8 9 9 9 10 10 10 11 11 11 11 11 11 11 11 12 12 12 12 12
5 6 6 6 6 6 6 6 6 6 5 5 5 5 6 6 6 6 6 6 6 6 6 7 7 8 9 9 9 10 10 10 10 10 10 11 11 11 11 11 11 12 12 12
5 6 6 6 6 6 6 7 6 6 5 5 5 5 5 6 6 6 5 5 6 6 6 6 7 7 8 9 9 9 9 10 10 10 10 10 10 10 10 11 11 11 11 11
5 6 6 6 7 7 7 6 6 5 5 5 5 5 5 5 5 5 5 5 5 5 6 6 6 7 7 8 8 9 9 9 9 9 10 10 10 10 10 10 10 10 11 11
5 6 6 7 7 7 6 6 5 5 5 5 5 5 5 5 5 5 5 4 5 5 5 5 6 6 7 7 8 8 8 9 9 9 9 9 9 9 9 9 10 10 10 10
5 5 6 6 6 6 6 6 6 6 6 5 5 5 5 6 5 5 5 4 4 5 5 5 5 6 6 6 7 7 8 8 8 8 8 9 9 9 9 9 9 9 10 10
5 5 6 7 7 7 6 5 6 5 5 5 5 5 6 6 5 5 4 4 4 4 4 5 5 5 6 6 6 7 7 7 7 8 8 8 8 8 8 9 9 9 9 9
5 5 6 6 7 6 6 5 4 5 5 6 6 5 5 5 4 4 4 4 4 4 4 4 5 5 5 5 6 6 6 6 7 7 7 8 8 8 8 8 8 8 9 9
5 5 5 6 6 6 6 5 5 4 5 5 6 6 5 5 4 4 3 4 4 4 4 4 4 5 5 5 5 5 6 6 6 7 7 7 7 7 7 8 8 8 8 8
5 4 4 5 6 6 6 5 5 5 4 4 4 5 5 4 4 4 4 4 4 4 4 4 4 5 5 5 5 5 5 5 6 6 7 7 7 7 7 7 7 7 8 7
5 4 4 5 6 5 5 5 5 4 3 3 4 5 5 4 4 4 4 4 4 4 4 4 4 4 4 4 5 5 5 5 5 6 6 6 6 6 6 7 7 7 7 7
5 4 4 5 5 5 5 5 5 4 3 4 4 4 4 4 4 3 4 4 4 4 4 4 4 4 4 4 4 4 5 5 5 5 6 6 6 6 6 6 6 6 6 6
4 4 4 4 4 5 5 5 5 4 4 4 5 4 4 4 3 4 4 4 4 4 4 4 4 3 3 4 4 4 4 4 5 5 5 5 5 5 5 5 5 5 5 5
3 4 4 4 4 4 4 4 4 4 4 4 4 4 4 4 4 4 4 4 4 4 4 4 4 3 3 3 3 3 4 4 4 4 4 4 4 5 5 5 5 5 5 4
3 4 4 3 3 4 4 4 4 5 4 4 4 5 4 4 3 4 4 4 4 4 4 4 4 4 3 3 3 3 3 4 4 4 4 4 4 4 4 4 4 4 4 4
3 3 3 3 3 5 5 5 4 5 5 4 4 4 4 4 5 5 5 5 5 4 4 4 4 4 3 3 3 3 3 3 4 4 4 4 4 4 4 4 4 4 3 3
2 3 3 2 3 3 5 5 4 5 5 4 4 4 4 4 4 4 5 5 5 5 4 4 4 3 3 3 3 3 3 3 3 3 3 3 3 3 3 3 3 3 3 3
2 2 2 2 3 5 6 5 5 5 5 5 4 3 3 3 3 4 6 5 5 5 4 4 4 3 3 3 3 3 3 3 3 3 3 3 3 3 2 2 2 2 2 2
3 2 2 2 3 3 4 4 5 5 6 6 5 5 4 3 5 6 6 5 5 5 4 4 4 4 3 3 3 3 3 3 3 2 2 2 2 2 2 2 2 2 2 2
2 2 2 2 2 4 4 4 4 5 6 6 6 6 5 6 6 6 5 5 5 5 4 4 4 4 3 3 3 3 2 2 2 2 2 2 2 1 1 1 1 1 1 1
1 1 1 2 4 4 5 5 6 6 6 6 6 6 6 6 5 5 5 5 5 5 4 4 4 3 3 3 2 2 2 2 2 2 1 1 1 1 1 1 1 1 1 0
1 1 1 1 2 3 5 6 7 7 6 7 7 6 6 6 6 5 5 5 5 4 4 4 3 3 3 3 2 2 2 2 2 2 1 1 1 1 1 0 0 -0 -0 -1
1 0 -0 1 1 3 6 7 7 7 7 7 6 6 6 6 5 5 5 5 5 4 4 3 3 3 3 2 2 2 2 2 1 1 1 1 1 0 0 -0 -1 -1 -1 -2
-0 1 1 3 4 3 6 7 7 7 6 6 6 6 6 6 5 5 5 5 4 4 4 3 3 3 2 2 2 2 1 1 1 1 1 0 0 -0 -0 -1 -1 -1 -1 -2

GEFSCGP_850_meantemp_126.txt.gz
Temperature
7 8 8 8 8 9 8 8 9 9 9 9 9 10 10 10 9 9 9 8 8 8 8 8 8 8 9 9 10 10 10 11 11 11 11 11 12 12 12 12 13 13 13 13
7 7 8 8 8 8 8 8 9 9 9 9 9 9 10 9 9 8 8 8 8 7 7 7 8 8 8 9 9 10 10 10 10 10 10 11 11 11 12 12 12 12 12 12
8 8 7 7 7 7 8 8 9 8 9 9 9 10 10 10 9 8 8 7 7 7 7 7 7 7 8 8 9 9 9 10 10 10 10 10 10 11 11 11 11 12 12 12
7 7 7 7 7 8 8 8 8 8 8 9 9 9 9 9 9 9 8 7 6 6 6 6 6 6 7 7 8 8 9 9 9 9 9 10 10 10 10 11 11 11 11 11
7 7 7 7 8 8 8 8 8 8 8 8 9 8 10 9 8 8 8 7 6 6 5 5 5 6 6 7 7 8 8 8 9 9 9 9 9 10 10 10 10 10 11 11
7 7 7 7 8 8 8 8 8 8 8 8 9 8 9 9 8 8 7 6 5 5 5 5 5 6 6 6 7 7 8 8 8 9 9 9 9 9 9 9 10 10 10 10
7 7 7 7 8 8 8 8 9 9 9 10 8 8 9 8 8 7 7 6 5 5 5 5 5 5 6 6 6 7 7 7 8 8 8 8 8 9 9 9 9 9 9 10
7 8 8 8 8 8 8 8 9 9 10 10 8 9 9 8 7 6 6 5 5 4 4 4 4 4 5 6 6 6 6 6 7 7 8 8 8 8 8 8 9 9 9 9
8 8 8 8 8 8 8 8 8 8 8 9 10 9 9 8 7 7 6 5 5 4 4 4 4 4 5 5 5 5 6 6 6 7 7 7 7 8 8 8 8 8 8 8
7 7 8 8 8 8 8 8 8 8 9 10 10 10 10 8 8 7 7 6 5 4 4 3 4 4 4 4 5 5 6 6 6 6 6 7 7 7 7 8 8 8 8 8
7 7 8 8 8 8 7 7 8 8 8 9 10 11 9 9 8 7 6 5 5 4 3 3 3 4 4 4 5 5 5 5 5 5 6 6 7 7 7 7 7 7 7 7
7 7 8 8 8 7 7 8 8 8 8 8 9 10 8 8 8 7 6 5 4 4 3 3 3 4 4 4 5 5 5 5 5 5 5 6 6 6 6 7 7 7 7 7
7 7 8 9 8 7 7 7 7 7 7 8 9 10 8 8 7 6 6 5 4 4 3 3 3 3 4 4 4 5 4 5 5 5 5 5 5 6 6 6 6 6 6 6
7 7 7 8 9 8 7 7 7 7 7 8 9 9 9 8 8 7 6 5 4 4 3 3 3 3 3 4 4 4 4 4 4 4 5 5 5 5 5 5 5 5 5 5
7 7 7 7 7 7 7 7 7 6 7 8 9 8 9 8 8 7 6 5 4 4 3 3 3 3 3 4 4 4 4 4 4 4 4 4 4 5 5 5 5 5 5 5
6 6 6 6 6 6 6 7 7 7 7 7 8 8 9 8 7 6 5 5 4 4 4 3 3 3 3 3 4 4 4 4 4 4 4 4 4 4 4 4 4 4 4 4
6 6 6 7 7 6 8 8 7 7 7 7 8 9 8 7 7 6 5 5 4 4 4 4 4 4 4 4 3 3 4 4 3 3 3 3 4 4 4 4 4 4 4 4
5 6 6 7 7 7 9 7 7 7 7 7 7 8 8 7 6 5 5 5 4 4 4 4 4 4 4 4 3 3 3 3 3 3 3 3 3 3 3 3 3 3 3 3
5 6 6 6 7 8 9 7 6 7 8 8 7 7 7 5 5 6 5 5 5 4 4 4 4 4 4 4 3 3 3 3 3 3 3 3 3 3 3 3 3 3 3 3
4 5 6 6 6 8 9 7 6 7 8 8 7 7 6 5 7 8 6 5 5 5 4 4 4 4 4 4 3 3 3 3 3 3 3 3 3 2 2 2 2 2 2 2
5 5 5 6 6 8 8 6 6 8 10 7 6 6 5 6 7 6 6 5 5 5 5 5 4 4 4 4 3 3 3 3 3 2 2 2 2 2 2 2 2 2 2 2
6 6 5 6 6 8 7 5 7 9 7 6 6 6 5 5 5 6 5 5 5 5 5 5 5 4 4 4 3 3 3 3 2 2 2 2 2 2 2 2 1 1 1 1
5 6 7 7 8 8 5 6 7 6 6 5 5 5 5 5 5 5 5 5 5 5 5 4 4 4 4 4 3 3 3 2 2 2 2 2 2 1 1 1 1 1 0 0
5 3 4 5 6 6 5 5 6 6 6 6 6 5 5 5 5 5 5 5 5 5 5 4 4 4 4 4 3 3 3 2 2 2 2 2 1 1 1 0 0 0 -0 -0
6 4 4 5 6 6 6 6 6 6 6 6 6 5 5 5 5 5 5 5 5 5 5 4 4 4 4 3 3 3 2 2 2 2 2 1 1 1 0 0 -0 -0 -1 -1
4 4 5 7 7 7 7 7 6 6 6 6 5 5 5 5 5 5 5 5 5 4 4 4 4 3 3 3 3 2 2 2 2 1 1 1 1 0 -0 -0 -0 -1 -1 -1

GEFSCGP_850_meantemp_132.txt.gz
Temperature
9 8 8 9 10 10 10 10 10 11 12 11 11 11 11 12 11 11 10 10 10 9 9 9 9 9 9 9 9 9 10 10 10 11 11 11 11 12 12 12 12 13 13 13
8 8 9 10 10 10 10 10 10 11 11 11 10 11 11 11 11 10 10 9 9 8 8 8 8 8 8 8 8 9 9 9 10 10 10 10 11 11 11 12 12 12 12 12
8 9 10 10 10 10 10 10 10 10 10 11 10 10 11 11 11 10 9 9 8 8 7 7 7 7 8 8 8 8 8 9 9 9 10 10 10 10 11 11 11 11 12 12
8 9 9 9 9 9 9 10 10 9 9 8 10 8 10 10 10 10 9 8 8 7 7 7 7 7 7 7 8 8 8 8 9 9 9 9 9 10 10 10 11 11 11 11
8 9 9 9 9 9 9 10 10 9 9 8 9 8 9 10 9 9 8 8 7 7 7 6 6 6 7 7 7 7 7 8 8 8 8 8 9 9 9 9 10 10 10 10
9 9 9 9 9 9 9 9 9 9 8 8 9 9 9 9 9 9 8 8 7 6 6 6 6 6 6 6 7 7 7 7 7 8 8 8 8 8 8 9 9 9 9 10
8 9 9 9 9 9 9 8 8 8 8 8 10 9 9 10 9 9 8 7 7 6 6 6 6 5 6 6 6 6 6 7 7 7 7 8 8 8 8 8 9 9 9 9
8 8 9 9 9 8 9 8 8 8 8 9 10 9 9 10 9 9 8 7 7 6 6 5 5 5 5 5 5 6 6 6 6 7 7 7 7 8 8 8 8 8 8 9
8 8 9 9 10 9 8 8 9 8 8 8 9 10 10 9 9 8 8 7 7 6 5 5 5 5 5 5 5 5 5 6 6 6 7 7 7 7 7 8 8 8 8 8
8 7 9 9 9 9 9 9 8 7 8 8 9 10 9 8 8 8 8 7 7 6 5 5 5 5 5 5 5 5 5 5 5 5 6 6 6 7 7 7 7 7 7 8
8 7 8 9 8 8 8 8 8 8 8 8 8 9 10 9 9 8 8 8 7 6 5 5 5 4 4 4 4 4 4 5 5 5 5 5 6 6 6 7 7 7 7 7
8 7 7 9 9 9 9 9 8 7 7 8 7 8 10 9 9 8 8 8 7 6 5 5 4 4 4 4 4 4 4 5 5 5 5 5 5 5 6 6 6 6 6 6
8 7 6 8 8 8 8 9 9 8 7 6 7 8 9 9 9 9 8 8 7 6 5 5 5 4 4 4 4 4 4 4 5 5 5 5 5 5 5 6 6 6 6 6
8 7 6 7 7 8 7 8 8 7 5 6 7 8 9 9 8 8 8 8 7 6 5 5 4 4 4 4 4 4 4 4 4 5 4 5 5 5 5 5 5 5 5 5
7 6 7 7 8 8 8 8 8 7 6 6 7 8 8 8 8 8 8 8 7 6 5 5 4 4 4 4 4 4 4 4 4 4 4 4 4 5 5 5 5 5 5 5
7 6 7 6 8 8 7 7 8 8 8 7 7 8 9 9 9 9 8 7 7 6 5 5 4 4 4 4 4 4 4 4 4 4 4 4 4 4 4 4 4 4 4 4
7 7 6 6 8 7 6 8 8 8 8 8 7 8 9 8 8 8 8 7 7 6 5 5 5 4 4 4 4 4 4 4 4 4 4 4 4 4 4 4 4 4 4 4
6 6 5 5 6 6 8 9 9 8 8 8 8 8 8 8 8 8 8 7 7 6 5 5 5 5 4 4 4 4 4 4 4 4 4 4 4 3 3 3 4 4 3 3
6 5 5 5 5 7 9 8 8 8 7 8 8 8 8 8 8 7 7 7 6 6 5 5 5 5 4 4 4 4 4 4 4 4 3 3 3 3 3 3 3 3 3 3
5 5 4 5 5 6 9 8 8 8 6 8 9 8 8 7 5 6 7 7 6 6 5 5 5 5 4 4 4 4 4 3 4 3 3 3 3 3 3 3 3 2 2 2
4 4 4 4 5 6 8 7 7 6 7 9 9 8 8 7 6 7 7 6 6 6 5 5 5 5 5 4 4 4 4 4 4 3 3 3 3 3 3 2 2 2 2 2
5 4 4 5 5 6 7 6 6 7 8 9 8 8 8 7 7 7 6 6 6 5 5 5 5 5 5 4 4 4 4 4 3 3 3 3 3 2 2 2 2 1 1 1
6 6 6 6 6 8 8 8 9 8 8 8 8 7 7 7 6 6 6 5 5 5 5 5 5 4 4 4 4 4 4 3 3 3 3 2 2 2 2 2 1 1 1 1
7 7 6 6 6 8 9 9 9 8 8 7 7 7 6 6 6 6 5 5 5 5 5 5 4 4 4 4 4 4 3 3 3 3 2 2 2 2 2 1 1 1 1 0
6 6 5 5 6 8 9 9 9 8 8 7 7 6 6 6 6 5 5 5 5 5 5 4 4 4 4 4 4 3 3 3 3 3 2 2 2 1 1 1 1 0 0 -0
5 5 5 5 7 7 8 9 8 8 7 7 6 6 6 6 5 5 5 5 5 5 4 4 4 4 4 3 3 3 3 3 2 2 2 2 1 1 1 1 0 0 -0 -1

GEFSCGP_850_meantemp_138.txt.gz
Temperature
7 6 6 7 7 8 7 7 7 8 9 8 8 8 8 9 9 8 8 9 9 9 9 9 9 9 9 9 9 9 9 10 10 10 10 11 11 11 11 11 12 12 12 12
5 6 7 8 8 8 8 7 7 8 8 8 7 7 8 8 8 8 8 8 8 8 8 8 8 8 8 9 9 9 9 9 9 9 10 10 10 11 11 11 11 11 11 12
6 7 8 8 7 7 7 7 7 7 7 8 7 7 7 8 8 8 8 8 8 8 8 8 8 7 8 8 8 8 8 9 9 9 9 9 9 10 10 10 11 11 11 11
7 7 8 7 7 7 7 8 8 7 6 6 7 6 6 7 7 7 7 7 7 7 7 7 7 7 7 7 7 7 8 8 8 8 8 9 9 9 9 10 10 10 10 11
6 7 7 7 7 8 7 8 8 7 6 6 6 5 6 6 7 7 6 7 7 7 7 7 7 6 7 7 7 7 7 7 8 8 8 8 8 8 9 9 9 9 10 10
7 7 7 7 8 8 8 7 7 6 5 6 6 5 6 6 7 7 6 7 7 7 7 6 6 6 6 6 6 7 7 7 7 7 8 8 8 8 8 8 8 8 9 9
6 7 7 8 7 7 7 5 5 5 5 6 6 6 6 7 7 7 6 7 7 7 6 6 6 6 6 6 6 6 6 7 7 7 7 7 7 8 8 8 8 8 8 8
5 5 7 7 7 7 6 6 5 6 5 5 6 6 6 7 7 7 7 7 7 6 6 6 6 6 6 6 6 6 6 6 6 7 7 7 7 7 7 7 7 7 8 8
5 6 7 7 8 7 7 6 6 5 5 5 5 6 7 7 6 6 6 6 6 6 6 6 6 6 5 5 5 5 6 6 6 6 6 7 7 7 7 7 7 7 7 7
6 5 6 7 7 7 7 6 5 5 5 6 6 6 6 7 6 6 5 6 6 6 6 6 6 6 5 5 5 5 5 6 6 6 6 6 6 6 6 6 7 7 7 7
6 5 5 6 6 6 6 6 5 4 4 5 5 6 7 7 6 6 5 6 7 6 6 6 6 5 5 5 5 5 5 5 5 5 6 6 6 6 6 6 6 6 6 6
6 4 4 5 6 7 6 6 5 5 5 4 4 6 7 6 6 6 6 7 7 7 6 6 6 5 5 5 5 5 5 5 5 5 5 5 5 5 5 5 6 6 6 6
6 4 4 5 6 6 6 6 6 5 4 3 4 6 7 6 6 7 7 7 7 6 6 6 5 5 5 5 5 5 5 5 5 5 5 5 5 5 5 5 5 5 5 6
6 4 4 5 6 5 5 5 6 5 3 3 4 5 6 6 6 6 7 7 7 6 6 6 6 5 5 5 5 5 4 4 4 4 4 4 4 4 5 5 5 5 5 5
5 3 3 4 5 5 5 5 5 4 4 4 5 5 6 6 5 6 7 7 6 6 6 6 6 5 5 5 5 4 4 4 4 4 4 4 4 4 4 4 4 4 5 5
4 3 3 3 5 4 4 5 5 5 5 5 5 6 6 7 7 6 6 6 6 6 6 6 6 5 5 5 5 4 4 4 4 4 4 4 4 4 4 4 4 4 4 4
3 3 3 3 3 3 4 5 5 5 5 5 5 6 6 6 5 6 7 7 6 6 6 6 6 6 5 5 5 4 4 4 4 4 4 4 4 4 4 4 4 4 4 4
3 3 3 2 3 4 6 6 6 5 6 5 6 6 5 6 7 7 7 7 7 7 6 6 6 6 5 5 5 4 4 4 4 4 4 4 4 4 4 4 4 4 3 3
3 3 3 2 2 3 5 6 6 5 5 6 5 6 6 7 6 6 8 7 7 7 7 6 6 5 5 5 4 4 4 4 4 4 4 4 4 3 3 3 3 3 3 3
2 3 3 2 3 4 6 7 7 6 6 6 5 5 6 5 4 5 8 7 7 7 6 6 6 5 5 5 4 4 4 4 4 4 3 3 3 3 3 3 3 3 2 2
2 2 2 2 3 3 5 6 6 6 7 8 7 7 6 5 6 8 8 7 7 7 6 6 5 5 5 5 4 4 4 4 4 3 3 3 3 3 3 3 3 2 2 2
2 2 2 2 2 4 5 5 5 6 8 8 8 8 7 7 8 7 7 7 7 6 6 6 5 5 5 4 4 4 4 4 3 3 3 3 3 3 2 2 2 2 2 1
2 3 3 3 5 6 6 7 8 8 8 8 8 8 8 7 7 7 7 7 7 6 6 5 5 5 5 4 4 4 4 4 3 3 3 3 2 2 2 2 2 2 1 1
2 3 2 2 3 5 6 7 8 8 8 8 8 8 7 7 7 7 7 6 6 6 6 5 5 5 4 4 4 4 3 3 3 3 3 2 2 2 2 2 1 1 1 1
3 2 2 2 3 5 7 8 8 8 8 7 7 7 7 7 7 7 6 6 6 6 5 5 5 4 4 4 4 3 3 3 3 2 2 2 2 2 2 2 1 1 1 0
3 3 3 4 5 4 6 8 8 7 7 7 7 7 7 6 6 6 6 6 6 5 5 5 4 4 4 4 3 3 3 3 2 2 2 2 2 2 1 1 1 0 0 -0

GEFSCGP_850_meantemp_144.txt.gz
Temperature
7 5 5 6 6 7 6 6 6 7 7 7 6 6 7 8 7 7 8 8 8 9 9 9 9 9 9 9 9 9 9 10 10 10 10 10 10 10 10 10 11 11 11 11
5 6 6 6 7 6 6 6 6 6 7 7 6 6 6 7 7 8 8 8 8 9 9 9 9 9 9 9 9 9 9 9 9 9 9 9 9 10 10 10 10 10 11 11
6 6 7 7 6 6 6 6 6 6 6 6 6 7 7 7 7 7 7 8 8 8 8 9 9 8 8 8 8 8 9 9 9 9 9 9 9 9 9 9 9 10 10 10
6 6 7 6 6 6 6 7 7 6 5 5 6 6 6 6 6 6 7 7 8 8 8 8 8 8 8 8 8 8 8 8 8 8 8 8 8 8 8 9 9 9 9 9
6 6 6 6 6 7 6 7 6 6 5 5 5 5 6 6 6 7 6 7 8 8 8 8 8 8 7 7 7 7 7 8 8 8 8 8 8 8 8 8 8 9 9 9
6 6 6 6 7 7 6 6 5 4 4 5 5 5 5 5 6 7 6 7 8 8 8 8 7 7 7 7 7 7 7 7 7 7 7 7 7 7 8 8 8 8 8 8
6 6 6 7 6 6 6 5 5 5 4 5 5 4 5 6 6 6 6 7 8 8 7 7 7 7 7 7 7 7 7 7 7 7 7 7 7 7 7 7 7 8 8 8
5 5 6 6 6 6 6 5 5 5 5 4 4 4 5 6 6 7 7 7 8 7 7 7 7 7 7 7 7 6 6 6 6 6 6 6 6 6 7 7 7 7 7 7
5 5 6 6 6 6 6 5 5 4 4 4 4 4 5 6 6 6 6 6 7 8 7 7 7 7 7 7 6 6 6 6 6 6 6 6 6 6 6 6 6 6 7 7
5 5 5 5 6 6 6 5 3 4 5 5 5 4 5 6 7 6 5 6 7 7 7 7 7 7 7 6 6 6 6 6 6 6 6 6 6 6 6 6 6 6 6 6
5 4 4 5 5 5 5 5 4 3 4 4 4 6 6 6 6 5 5 6 7 7 8 7 7 7 6 6 6 6 5 5 5 5 5 6 6 6 6 6 6 6 6 6
4 3 3 4 5 5 5 5 4 4 4 3 3 5 7 5 5 5 5 7 7 7 7 7 7 7 6 6 6 5 5 5 5 5 5 5 5 5 5 5 5 5 5 5
4 3 3 5 5 5 5 4 4 4 3 2 3 5 6 5 5 6 6 7 7 7 7 7 7 7 6 6 6 5 5 5 5 5 5 5 5 5 5 5 5 5 5 5
5 3 3 5 5 5 4 4 4 3 3 3 3 4 6 5 5 5 6 7 7 7 7 7 7 6 6 6 6 5 5 5 5 5 4 5 5 5 4 4 4 4 4 4
4 3 2 2 3 3 3 4 4 3 3 3 4 4 6 6 5 6 6 6 6 7 7 7 7 6 6 6 6 5 5 5 5 4 4 4 4 4 4 4 4 4 4 4
2 3 2 2 3 3 3 4 3 4 4 4 4 5 6 6 6 5 6 6 6 7 7 7 7 6 6 6 6 5 5 5 5 4 4 4 4 4 4 4 4 4 4 4
2 2 3 2 2 2 3 4 4 3 3 3 4 5 5 5 4 5 6 6 6 7 7 7 7 7 6 6 6 5 5 5 5 4 4 4 4 4 4 4 3 3 3 3
1 2 2 2 2 3 5 5 4 3 4 3 4 4 4 5 6 7 7 7 7 7 7 7 7 7 6 6 5 5 5 5 4 4 4 4 4 4 3 3 3 3 3 3
1 2 2 2 2 3 4 4 4 3 4 4 4 4 5 5 5 6 8 8 8 8 7 7 7 6 6 6 5 5 5 5 4 4 4 4 4 3 3 3 3 3 3 3
1 2 2 2 2 3 6 5 5 5 5 5 4 4 4 4 3 5 8 7 7 7 7 7 6 6 6 6 5 5 5 4 4 4 4 4 3 3 3 3 3 3 3 2
1 1 2 2 2 3 4 4 5 5 6 7 6 6 5 4 5 7 7 7 7 7 7 6 6 6 6 5 5 5 5 5 4 4 4 3 3 3 3 3 3 2 2 2
2 1 1 2 2 3 4 3 4 5 7 7 7 7 6 6 7 7 7 7 7 7 7 6 6 6 6 5 5 5 5 4 4 4 3 3 3 3 3 2 2 2 2 2
1 2 2 2 4 5 5 5 7 7 6 7 7 7 7 6 6 6 6 6 6 6 6 6 6 6 5 5 5 4 4 4 4 3 3 3 3 3 2 2 2 2 2 2
1 1 1 1 2 4 5 6 7 6 6 6 6 6 6 6 6 6 6 6 6 6 6 6 6 5 5 5 4 4 4 4 3 3 3 3 2 2 2 2 2 2 2 1
2 1 0 1 2 3 5 7 7 7 6 6 6 6 5 5 5 5 5 5 5 6 6 5 5 5 5 5 4 4 4 3 3 3 3 3 2 2 2 2 2 1 1 1
1 2 2 3 4 3 5 7 6 6 6 5 5 5 5 5 5 5 5 5 5 5 5 5 5 5 5 4 4 4 3 3 3 3 3 2 2 2 2 1 1 1 1 1

GEFSCGP_850_meantemp_150.txt.gz
Temperature
9 11 10 10 10 11 11 11 11 11 10 10 11 12 12 11 10 11 10 10 10 9 9 9 9 9 10 10 10 10 10 10 10 10 10 10 10 10 10 11 11 11 11 11
11 10 9 9 9 10 10 11 11 10 10 10 11 11 12 11 11 10 10 10 10 9 9 9 9 9 9 9 9 9 9 9 10 10 10 10 10 10 10 10 10 10 10 10
10 9 8 9 9 10 10 10 10 10 10 10 10 12 12 12 10 10 9 9 9 9 9 9 9 9 9 9 9 9 9 9 9 9 9 9 10 10 10 9 9 9 9 9
9 8 8 9 9 10 10 9 9 9 10 11 10 12 13 12 11 11 10 10 9 9 8 8 9 9 9 9 9 9 9 8 9 9 9 9 9 9 9 9 9 9 9 9
9 8 9 9 9 9 9 9 9 9 9 10 10 10 13 12 12 12 11 10 9 9 8 8 8 9 9 9 8 8 8 8 8 8 8 8 8 8 8 8 8 8 8 9
8 8 8 8 8 8 8 9 9 9 9 10 10 10 12 13 12 12 12 10 9 8 8 8 8 8 8 8 8 8 8 8 8 7 7 7 7 7 7 7 7 8 8 8
9 8 8 8 9 9 9 10 10 10 11 11 9 9 12 13 12 11 11 10 9 8 8 8 8 8 8 8 8 8 8 7 7 7 7 7 7 7 7 7 7 7 7 7
9 9 8 8 8 9 9 9 10 11 12 12 9 10 13 12 10 9 9 9 8 8 8 8 8 8 8 8 8 8 7 7 7 7 7 7 7 6 6 6 6 7 7 7
9 9 8 7 7 8 9 9 9 9 9 9 12 11 12 11 11 10 10 9 9 8 8 7 7 8 8 8 8 7 7 7 7 7 6 6 6 6 6 6 6 6 6 7
8 8 8 7 7 7 8 8 8 8 9 11 12 12 13 12 12 11 11 10 9 8 8 7 7 7 8 7 7 7 7 7 6 6 6 6 6 6 6 6 6 6 6 6
7 7 8 8 8 8 7 7 8 8 8 9 11 13 13 12 11 11 11 9 9 8 7 7 7 7 7 7 7 7 7 6 6 6 6 6 6 6 6 6 6 6 6 6
7 7 8 8 7 7 8 8 8 8 8 8 9 11 12 11 10 9 9 9 8 8 7 7 7 7 7 7 7 7 7 6 6 6 6 6 5 5 5 6 6 5 5 5
7 7 8 9 8 6 7 7 7 8 7 8 8 11 11 10 10 9 9 8 8 7 7 7 7 7 7 7 7 6 6 6 6 6 6 5 5 5 5 5 5 5 5 5
6 7 7 9 9 8 7 7 7 7 7 8 8 10 11 11 10 10 9 8 8 7 7 7 7 7 7 7 7 6 6 6 6 5 5 5 5 5 5 5 5 5 5 5
6 6 6 7 7 7 7 7 7 6 7 7 9 9 10 11 10 9 8 8 7 7 7 7 7 6 6 6 6 6 6 6 5 5 5 5 5 5 5 4 4 4 4 4
6 6 5 5 6 6 5 6 7 7 7 7 8 8 10 10 8 8 8 7 7 7 7 6 6 7 6 6 6 6 6 6 5 5 5 5 5 4 4 4 4 4 4 4
5 5 5 6 6 5 6 8 7 7 7 7 7 9 10 9 8 8 8 7 7 7 6 6 6 6 6 6 6 6 6 6 5 5 5 5 5 4 4 4 4 3 3 3
5 5 5 5 5 6 9 7 7 7 7 7 7 8 8 8 7 6 7 7 7 7 6 6 6 6 6 6 6 6 6 5 5 5 5 5 4 4 4 4 3 3 3 3
5 5 5 5 6 7 9 7 6 6 7 8 7 8 7 6 6 7 7 7 6 6 6 6 6 6 6 6 6 6 6 5 5 5 5 5 4 4 4 4 3 3 3 3
3 4 5 5 5 6 9 7 5 6 8 8 7 7 7 6 8 9 7 7 6 6 6 6 6 6 6 6 5 5 5 5 5 5 5 4 4 4 4 3 3 3 3 2
2 3 3 4 5 7 8 6 5 7 9 7 6 6 6 6 7 7 6 6 6 6 6 6 6 6 6 5 5 5 5 5 5 5 4 4 4 4 3 3 3 3 2 2
4 4 4 4 4 6 7 5 7 9 7 6 6 6 5 5 6 5 5 5 5 5 5 5 5 6 5 5 5 5 5 5 4 4 4 4 3 3 3 3 3 2 2 2
5 6 6 6 7 8 6 7 7 6 6 6 6 6 5 5 5 5 5 5 5 5 5 5 5 5 5 5 5 5 5 4 4 4 4 3 3 3 3 2 2 2 2 2
5 4 5 5 6 7 6 6 6 6 5 5 5 5 5 4 4 4 4 4 5 5 5 5 5 5 5 5 5 5 4 4 4 3 3 3 3 3 2 2 2 2 2 2
6 4 4 5 6 6 6 6 6 6 5 5 5 4 4 4 4 4 4 4 4 4 4 4 4 5 5 5 5 5 4 4 4 3 3 3 3 2 2 2 2 2 2 1
5 5 5 6 7 6 6 6 5 5 5 4 4 4 4 3 3 3 3 3 3 4 4 4 4 4 4 4 4 4 4 4 3 3 3 3 3 2 2 2 2 2 1 1

GEFSCGP_850_meantemp_156.txt.gz
Temperature
12 11 10 11 12 12 13 13 13 13 13 12 12 12 13 13 13 13 13 13 12 12 11 11 11 11 11 11 11 11 11 11 11 11 11 11 11 11 10 11 11 11 11 11
11 10 11 12 12 13 13 12 12 13 13 12 12 12 13 13 13 13 13 13 13 12 11 11 11 10 10 10 11 10 10 10 10 10 10 10 10 10 10 10 10 10 10 10
11 11 11 12 12 12 12 12 11 11 11 12 12 12 13 13 13 13 13 13 13 12 11 11 10 10 10 10 10 10 10 10 10 10 10 10 10 10 10 10 10 10 10 10
11 11 11 11 11 11 11 11 11 11 10 10 12 9 12 12 12 12 13 12 12 12 11 11 10 10 10 10 10 10 10 10 10 9 9 10 9 9 9 9 9 9 9 9
10 10 10 10 10 11 10 11 11 11 10 10 11 10 10 13 12 12 12 12 12 12 11 11 10 10 10 10 10 10 9 9 9 9 9 9 9 9 9 9 9 9 8 8
10 10 10 10 10 11 10 11 11 10 9 9 11 10 10 12 12 12 12 12 12 12 11 11 10 10 10 9 9 9 9 9 9 9 9 8 8 8 8 8 8 8 8 8
10 10 10 10 10 10 10 9 9 9 9 9 11 11 10 13 13 12 12 12 12 11 11 10 10 10 9 9 9 9 9 9 9 8 8 8 8 8 8 8 7 7 7 7
9 9 10 10 10 9 10 10 8 8 9 10 11 10 11 13 13 13 12 12 12 11 11 10 10 9 9 9 9 8 8 8 8 8 8 8 7 7 7 7 7 7 7 7
9 9 10 10 10 9 10 9 10 8 9 9 10 12 12 12 12 12 12 12 11 11 10 10 10 9 9 9 8 8 8 8 8 8 8 7 7 7 7 7 7 7 7 7
9 8 9 9 9 9 9 9 8 8 8 9 11 12 11 11 11 11 11 11 11 11 10 10 9 9 9 8 8 8 8 8 8 7 7 7 7 7 6 6 6 6 6 6
9 8 8 9 8 9 8 9 9 8 8 8 8 10 12 11 11 11 11 11 11 10 10 9 9 9 9 8 8 8 7 7 7 7 7 7 7 6 6 6 6 6 6 6
9 8 7 9 9 9 9 9 9 7 8 8 7 8 12 11 11 11 11 11 11 10 10 9 9 8 8 8 8 7 7 7 7 7 7 6 6 6 6 6 6 6 6 6
8 7 7 8 8 8 8 9 9 8 7 6 7 8 11 11 11 11 11 11 10 10 9 9 8 8 8 8 7 7 7 7 7 7 6 6 6 6 6 6 6 6 6 6
8 7 7 7 8 8 7 8 8 7 5 6 7 8 10 10 10 10 11 10 10 10 9 9 8 8 8 7 7 7 7 7 6 6 6 6 6 6 6 6 5 5 5 5
7 6 7 7 8 8 8 7 7 7 6 6 7 8 9 9 9 10 10 10 10 9 9 8 8 8 7 7 7 7 7 6 6 6 6 6 6 5 5 5 5 5 5 5
7 6 6 6 7 7 7 7 7 7 7 7 7 8 9 10 10 10 9 9 9 9 8 8 8 7 7 7 7 7 6 6 6 6 6 5 5 5 5 5 5 5 5 5
6 6 5 5 7 6 5 7 7 7 7 7 7 8 9 9 9 9 9 9 8 8 8 7 7 7 7 6 6 6 6 6 6 6 5 5 5 5 5 5 5 4 4 4
6 6 5 5 5 5 8 9 9 8 8 8 8 8 8 8 9 9 8 8 8 7 7 7 7 6 6 6 6 6 6 6 5 5 5 5 5 5 4 4 4 4 4 4
6 5 5 5 5 6 8 8 8 7 7 8 8 8 9 9 8 8 8 8 7 7 7 6 6 6 6 6 6 5 5 5 5 5 5 5 4 4 4 4 4 4 4 4
4 5 4 4 5 5 8 8 8 7 6 8 8 8 8 7 5 6 8 7 7 6 6 6 6 6 6 5 5 5 5 5 5 5 5 4 4 4 4 4 4 3 3 3
3 3 3 3 4 5 8 7 7 6 7 8 8 8 8 6 6 7 7 7 6 6 6 6 5 5 5 5 5 5 5 5 5 5 4 4 4 4 3 3 3 3 3 3
4 3 3 4 4 5 7 6 6 7 8 8 8 7 7 7 6 6 6 6 6 5 5 5 5 5 5 5 5 5 5 5 4 4 4 4 4 3 3 3 3 3 2 2
5 5 5 5 6 8 8 8 8 8 7 7 7 6 6 6 6 5 5 5 5 5 5 5 5 5 5 5 4 4 5 5 4 4 4 4 4 3 3 3 3 2 2 2
6 7 6 5 6 8 8 8 8 7 7 7 6 6 6 5 5 5 5 4 4 4 4 4 4 4 4 4 4 4 4 4 4 4 4 4 3 3 3 2 2 2 2 2
6 5 4 5 6 7 8 7 7 7 6 6 6 5 5 5 4 4 4 4 4 4 4 3 3 4 4 4 4 4 4 4 3 3 3 3 3 3 3 2 2 2 2 2
5 5 4 5 6 6 6 6 6 6 5 5 5 5 4 4 4 3 3 3 3 3 3 3 3 3 3 3 3 3 3 3 3 3 3 3 3 2 2 2 2 2 1 1

GEFSCGP_850_meantemp_162.txt.gz
Temperature
9 7 7 8 9 9 9 9 9 10 10 10 9 9 9 10 10 10 11 11 11 12 12 11 11 12 11 11 12 12 12 12 11 11 11 11 11 11 11 11 11 11 11 11
7 8 9 9 9 9 9 9 9 9 10 10 9 9 9 9 10 10 11 11 11 11 11 11 11 11 11 11 11 11 11 11 11 11 11 11 11 11 10 10 11 11 11 10
8 8 9 9 9 9 9 8 8 9 9 9 9 8 9 9 10 11 11 12 11 11 11 11 11 11 11 11 11 11 11 11 11 11 10 10 10 10 10 10 10 10 10 10
8 9 9 9 9 9 8 9 9 9 7 7 8 7 8 9 9 9 10 11 11 11 11 11 11 11 11 11 11 11 10 10 10 10 10 10 10 10 10 9 9 9 9 9
8 8 9 9 9 9 8 9 8 8 7 7 7 7 7 8 9 9 9 10 11 11 11 11 11 11 11 11 11 11 10 10 10 10 10 9 9 9 9 9 9 9 9 9
8 9 9 9 9 9 8 8 8 6 6 7 7 7 7 7 9 9 9 10 11 11 11 11 11 11 11 11 10 10 10 10 10 10 9 9 9 9 9 9 9 9 9 9
7 8 8 9 8 8 7 6 6 6 6 7 7 7 7 8 8 8 9 10 11 11 11 11 11 11 11 10 10 10 10 10 9 9 9 9 9 9 8 8 8 8 8 8
7 7 8 8 8 8 7 7 6 7 6 6 7 7 7 8 9 10 10 11 11 11 11 11 11 11 10 10 10 10 9 9 9 9 9 9 8 8 8 8 8 8 8 8
6 7 8 8 8 8 8 6 7 5 5 5 6 6 8 9 8 9 9 10 10 11 11 10 10 10 10 10 9 9 9 9 9 8 8 8 8 8 8 8 7 7 7 7
7 6 7 7 8 8 7 7 5 5 6 6 6 6 7 8 8 8 8 9 10 10 10 10 10 10 9 9 9 9 8 8 8 8 8 8 8 7 7 7 7 7 7 7
7 6 6 6 6 7 7 7 6 5 5 5 6 7 8 8 8 8 8 9 10 10 10 10 9 9 9 9 9 9 8 8 8 8 7 7 7 7 7 7 7 7 7 7
6 4 4 5 6 7 6 6 5 5 5 4 4 6 8 7 8 8 8 9 10 9 9 9 9 9 9 9 8 8 8 8 8 7 7 7 7 7 6 6 6 6 6 6
6 5 5 6 6 6 6 6 6 5 4 3 4 6 7 7 8 8 9 9 9 9 9 9 9 9 8 8 8 8 8 7 7 7 7 7 6 6 6 6 6 6 6 6
6 4 4 6 6 6 5 6 6 5 4 4 4 5 7 7 7 7 8 9 9 9 9 9 8 8 8 8 7 7 7 7 7 7 7 7 6 6 6 6 5 5 5 5
5 4 4 4 5 5 5 5 5 4 4 4 5 5 6 6 6 7 8 8 8 8 8 8 8 8 8 7 7 7 7 7 7 6 6 6 6 6 5 5 5 5 5 5
4 4 4 4 4 4 4 5 5 5 5 5 5 5 6 7 8 8 8 8 8 8 8 8 7 7 7 7 7 7 7 6 6 6 6 6 5 5 5 5 5 5 4 4
3 3 4 3 3 4 4 5 5 4 4 5 5 6 6 6 6 7 8 8 7 7 7 7 7 7 7 7 6 6 6 6 6 6 6 5 5 5 5 5 5 4 4 4
3 3 3 3 3 4 6 6 5 5 5 5 5 5 6 6 7 8 8 7 7 7 7 7 7 6 6 6 6 6 6 5 5 5 5 5 5 5 5 5 4 4 4 4
3 3 3 3 3 3 5 6 5 5 5 5 5 5 6 7 6 6 7 7 7 7 7 6 6 6 6 6 5 5 5 5 5 5 5 5 5 4 4 4 4 4 4 4
2 3 3 3 3 4 6 6 7 6 5 6 5 5 6 5 4 5 7 7 6 6 6 6 6 6 5 5 5 5 5 5 5 4 4 4 4 4 4 4 4 4 3 3
2 2 2 3 3 3 4 5 6 5 5 6 6 6 6 5 5 6 6 6 6 6 6 5 5 5 5 5 5 5 5 4 4 4 4 4 4 4 4 4 3 3 3 3
2 1 2 2 2 3 5 4 4 5 6 7 6 6 6 6 6 6 6 6 5 5 5 5 5 5 5 4 4 4 4 4 4 4 4 3 3 3 3 3 3 3 2 2
2 3 2 3 4 5 6 6 7 7 6 6 6 6 6 5 5 5 5 5 5 5 4 4 4 4 4 4 4 4 4 4 3 3 3 3 3 3 3 3 2 2 2 2
1 2 2 2 2 4 6 6 6 6 6 5 5 5 5 5 5 4 4 4 4 4 4 4 3 3 4 4 3 3 3 3 3 3 3 3 3 3 3 2 2 2 2 2
2 2 1 2 3 4 5 6 6 5 5 5 5 5 4 4 4 4 4 4 3 3 3 3 3 3 3 3 3 3 3 3 3 3 3 3 2 2 2 2 2 2 2 1
1 2 2 3 4 3 4 5 5 5 4 4 4 4 4 4 3 3 3 3 3 3 3 2 2 3 3 3 3 3 2 2 2 2 2 2 2 2 2 2 2 1 1 1

GEFSCGP_850_meantemp_168.txt.gz
Temperature
8 7 6 7 7 8 8 8 8 8 8 8 8 7 8 9 9 9 9 10 11 11 11 11 11 11 11 11 11 11 11 11 11 11 11 11 11 11 11 11 11 11 11 11
7 7 7 8 8 8 8 8 8 8 8 8 7 7 8 8 8 9 9 10 10 11 11 11 11 11 11 11 11 11 11 11 11 11 11 11 11 11 11 10 10 10 10 10
8 8 8 8 8 8 7 8 8 8 7 7 7 8 8 8 8 9 9 10 10 11 11 11 11 11 11 11 11 11 11 11 10 10 10 10 10 10 10 10 10 10 10 10
7 7 8 8 8 8 8 8 8 7 7 6 7 7 7 7 7 8 9 9 10 11 11 11 11 11 11 11 11 10 10 10 10 10 10 10 10 10 10 10 10 9 9 9
7 7 7 8 8 8 7 7 7 7 6 6 6 6 6 6 8 8 8 9 10 11 11 11 11 11 11 11 10 10 10 10 10 10 10 10 9 9 9 9 9 9 9 9
7 7 7 7 7 7 7 7 6 5 5 6 6 6 6 6 7 8 8 9 10 10 11 11 11 11 11 10 10 10 10 10 10 9 9 9 9 9 9 9 9 9 9 9
7 7 7 7 7 7 7 6 6 6 5 6 6 5 6 7 7 7 7 9 10 10 10 11 11 11 11 10 10 10 10 10 9 9 9 9 9 9 9 8 8 8 8 8
7 7 7 7 7 7 6 7 6 7 6 5 5 5 6 7 7 8 8 9 9 10 10 10 10 10 10 10 10 10 10 9 9 9 9 8 8 8 8 8 8 8 8 8
6 7 7 7 7 7 6 5 6 5 5 5 5 5 6 7 7 7 7 8 9 10 10 10 10 10 10 10 9 9 9 9 9 8 8 8 8 8 8 7 7 7 7 8
6 6 6 6 7 6 6 5 4 5 6 6 6 5 6 7 7 6 6 7 9 9 9 9 9 9 9 9 9 9 9 8 8 8 8 8 8 7 7 7 7 7 7 7
6 5 6 6 6 6 6 5 5 4 4 5 5 7 6 6 7 6 6 8 9 9 9 9 9 9 9 9 8 8 8 8 8 8 8 7 7 7 7 7 7 7 7 7
5 4 4 5 5 5 5 5 4 5 5 3 3 5 7 6 6 6 7 8 9 9 9 9 9 9 8 8 8 8 8 8 8 7 7 7 7 7 7 6 6 6 6 6
5 4 5 6 5 5 5 5 4 4 4 2 3 6 6 5 6 7 7 8 9 9 9 9 8 8 8 8 8 8 8 8 7 7 7 7 7 7 6 6 6 6 6 6
5 4 4 6 6 5 5 5 4 4 3 3 3 5 6 6 6 6 7 8 8 8 8 8 8 8 8 8 8 7 7 7 7 7 7 7 6 6 6 6 6 6 6 5
4 4 3 3 4 4 4 4 4 3 4 4 4 4 6 5 5 7 7 8 8 8 8 8 8 7 7 7 7 7 7 7 6 6 6 6 6 6 6 6 6 5 5 5
3 3 3 3 3 3 3 3 4 4 4 4 4 5 5 6 6 6 7 7 7 7 7 7 7 7 7 7 7 7 7 6 6 6 6 6 6 5 5 5 5 5 5 5
2 3 3 3 3 3 3 4 4 3 3 3 4 5 5 4 4 6 6 7 7 7 7 7 7 7 7 7 6 6 6 6 6 6 5 5 5 5 5 5 5 5 4 4
2 2 2 2 2 3 5 5 4 3 3 3 4 4 4 4 6 6 7 7 6 6 6 6 6 6 6 6 6 6 6 5 5 5 5 5 5 5 5 4 4 4 4 4
2 3 2 2 2 3 4 4 3 3 4 3 3 4 4 5 5 5 7 6 6 6 6 6 6 6 6 6 5 5 5 5 5 5 5 5 4 4 4 4 4 4 4 4
1 2 2 2 2 3 5 5 4 4 4 4 3 3 4 4 3 4 6 6 6 6 6 6 5 5 5 5 5 5 4 4 4 4 4 4 4 4 4 4 4 3 3 3
1 1 2 2 2 3 3 4 4 4 5 5 5 5 4 3 4 5 5 6 6 5 5 5 5 5 5 4 4 4 4 4 4 4 4 4 4 4 3 3 3 3 3 3
1 1 1 2 2 3 4 3 3 4 5 5 5 5 5 5 5 5 5 5 5 5 5 4 4 4 4 4 4 4 4 4 3 3 3 3 3 3 3 3 3 3 3 2
1 2 2 2 3 4 4 4 5 5 5 5 5 5 4 4 4 4 4 4 4 4 4 4 4 4 4 3 3 3 3 3 3 3 3 3 3 3 3 2 2 2 2 2
-0 0 1 1 1 3 4 4 5 5 4 4 4 4 4 4 4 4 3 3 4 4 3 3 3 3 3 3 3 3 3 2 2 2 2 2 2 2 2 2 2 2 2 2
1 -0 -0 0 1 2 3 4 4 4 4 4 3 3 3 3 3 3 3 3 3 3 3 3 3 2 3 2 2 2 2 2 2 2 2 2 2 2 2 2 2 1 1 1
0 0 0 1 2 2 3 4 4 4 3 3 3 3 3 3 2 2 2 2 2 2 2 2 2 2 2 2 2 2 2 1 1 1 1 1 1 1 1 1 1 1 1 1

GEFSCGP_850_meantemp_174.txt.gz
Temperature
10 12 12 11 11 12 12 12 12 12 11 11 12 12 13 12 11 11 11 11 11 11 10 11 11 11 11 11 11 11 12 11 11 12 11 11 11 11 11 11 11 11 11 11
12 11 10 10 10 11 11 12 12 11 11 11 11 12 13 12 11 11 11 11 11 10 10 10 10 11 11 11 11 11 11 11 11 11 11 11 11 11 11 11 11 11 11 11
12 11 10 10 10 11 11 12 11 11 11 11 11 13 13 12 11 10 10 10 10 10 10 10 10 10 11 11 11 11 11 11 11 11 11 11 10 10 10 10 10 10 10 10
11 10 10 10 10 11 11 10 10 10 12 12 11 13 14 12 12 11 11 10 10 10 10 10 10 10 10 11 11 11 11 11 10 10 10 10 10 10 10 10 10 10 10 10
10 9 10 10 10 10 10 9 10 10 11 12 12 12 14 12 12 12 12 11 10 9 9 10 10 10 10 10 10 10 10 10 10 10 10 10 10 10 9 9 9 9 9 10
9 8 9 9 9 9 9 10 10 10 11 12 11 12 14 13 13 12 12 10 10 9 9 10 10 10 10 10 10 10 10 10 10 10 10 10 9 9 9 9 9 9 9 9
10 9 9 8 10 9 10 11 12 12 12 13 10 11 13 13 12 12 11 10 9 9 9 9 10 10 10 10 10 10 10 9 9 9 9 9 9 9 9 9 9 9 8 8
11 11 9 9 9 10 10 11 12 12 13 13 11 11 14 12 10 10 10 9 9 9 9 9 9 10 10 10 10 10 9 9 9 9 9 9 9 9 8 8 8 8 8 8
11 11 8 8 8 9 10 10 10 11 10 11 13 12 13 11 11 10 10 9 9 8 8 9 9 9 10 10 9 9 9 9 9 9 8 8 8 8 8 8 8 8 8 8
10 9 9 8 8 8 9 10 10 10 11 12 13 13 14 12 12 11 10 10 9 8 8 8 9 9 9 9 9 9 9 9 9 8 8 8 8 8 8 8 7 7 7 7
9 9 9 8 9 9 8 8 9 10 10 11 12 14 13 12 12 11 11 10 9 8 8 8 8 9 9 9 9 8 8 8 8 8 8 8 8 7 7 7 7 7 7 7
8 9 9 9 8 7 8 9 9 10 10 9 11 13 12 11 10 10 10 9 8 8 8 8 8 8 8 8 8 8 8 8 8 8 8 7 7 7 7 7 7 7 7 7
7 8 9 10 8 7 7 8 8 9 9 9 10 12 10 9 9 8 8 8 8 8 8 8 8 8 8 8 8 8 8 8 7 7 7 7 7 7 7 6 6 6 6 6
7 8 9 10 10 9 8 7 7 7 8 9 9 11 11 10 10 9 8 8 8 8 7 7 7 7 7 7 7 7 7 7 7 7 7 7 7 6 6 6 6 6 6 5
7 7 7 8 7 7 8 8 7 7 8 8 10 10 11 11 10 9 8 8 7 7 7 7 7 7 7 7 7 7 7 7 7 7 7 6 6 6 6 6 5 5 5 5
6 6 6 6 6 6 6 7 7 7 8 8 8 9 10 9 8 8 7 7 7 7 6 6 7 7 7 6 6 6 7 6 6 6 6 6 6 5 5 5 5 5 5 5
5 6 6 7 6 5 6 8 7 7 7 8 8 9 9 8 7 7 7 6 6 6 6 6 6 6 6 6 6 6 6 6 6 6 6 5 5 5 5 5 5 4 4 4
5 5 5 6 5 5 9 7 7 7 7 7 7 8 8 7 7 6 6 6 6 6 6 6 6 6 6 6 6 5 5 5 5 5 5 5 5 5 5 4 4 4 4 4
5 5 5 5 6 7 8 7 6 6 7 7 6 7 6 5 5 6 6 6 6 6 6 5 6 5 5 5 5 5 5 5 5 5 5 4 4 4 4 4 4 4 4 4
3 4 5 5 5 6 9 6 5 6 7 6 5 6 5 5 6 7 6 5 5 5 5 5 5 5 5 5 5 4 4 4 4 4 4 4 4 4 4 4 3 3 3 3
3 3 4 5 5 7 7 5 5 6 7 5 5 5 4 5 6 5 5 5 5 5 5 5 5 4 4 4 4 4 4 4 4 4 3 3 3 3 3 3 3 3 3 3
4 4 4 4 4 6 6 4 5 7 5 4 4 4 4 4 4 4 4 4 4 4 4 4 4 4 4 4 4 3 3 3 3 3 3 3 3 3 3 3 3 2 2 2
4 5 5 5 6 6 4 5 5 4 4 4 4 4 4 4 4 4 4 4 4 4 4 4 3 3 3 3 3 3 3 3 3 3 3 3 2 2 2 2 2 2 2 2
3 3 3 3 4 4 3 4 4 4 3 4 3 3 3 3 3 3 3 3 3 3 3 3 3 3 3 3 2 2 2 2 2 2 2 2 2 2 2 2 1 1 1 1
4 2 3 3 4 3 3 3 3 3 3 3 3 3 3 2 2 2 2 2 2 2 2 2 2 2 2 2 2 2 2 2 2 2 1 1 1 1 1 1 1 1 1 1
3 2 3 4 4 3 3 3 3 2 2 2 2 2 2 2 2 2 2 2 2 2 2 2 2 1 1 1 1 1 1 1 1 1 1 1 1 1 0 0 0 0 0 0

GEFSCGP_850_meantemp_180.txt.gz
Temperature
13 12 11 12 12 13 13 13 13 13 13 13 12 13 13 14 14 13 13 13 13 12 12 12 12 11 11 11 11 11 11 11 11 11 11 11 11 11 11 11 11 11 11 11
12 11 12 13 13 13 13 13 13 13 13 13 12 13 14 13 13 13 13 13 13 12 12 11 11 11 11 11 11 11 11 11 11 11 11 11 11 11 11 11 11 11 11 11
12 12 13 13 12 13 13 12 12 12 12 13 12 12 14 13 13 13 13 13 12 12 12 11 11 10 11 11 11 11 11 11 11 11 11 11 11 11 11 11 11 11 11 11
12 12 12 12 12 12 12 12 12 11 11 11 12 10 12 13 12 12 12 12 12 12 11 11 11 10 10 11 11 11 11 11 11 11 11 11 11 10 11 11 10 10 10 10
12 12 11 11 12 12 11 11 11 11 11 11 12 11 11 13 12 12 12 12 12 11 11 11 10 10 10 10 10 10 10 10 11 11 10 10 10 10 10 10 10 10 10 10
11 11 11 11 11 11 11 11 11 11 10 10 12 11 11 12 12 12 12 12 12 11 11 10 10 10 10 10 10 10 10 10 10 10 10 10 10 10 10 10 9 9 9 9
11 11 11 11 10 11 11 10 10 10 9 10 12 12 12 13 13 13 12 12 12 11 11 10 10 9 9 10 10 10 10 10 10 10 10 10 10 9 9 9 9 9 9 9
10 10 10 10 10 10 10 11 9 10 10 11 12 11 12 13 13 13 12 12 11 11 10 10 10 9 9 9 9 10 10 10 10 10 9 9 9 9 9 9 9 9 9 8
11 10 10 10 11 10 10 10 11 10 10 10 11 13 13 12 12 12 12 11 11 10 10 10 10 9 9 9 9 9 9 9 9 9 9 9 9 9 9 9 8 8 8 8
11 10 10 10 9 9 10 10 9 9 9 10 12 13 11 11 11 11 11 11 11 10 10 10 9 9 9 9 9 9 9 9 9 9 9 9 9 9 8 8 8 8 8 8
11 9 9 9 9 9 9 9 9 9 10 9 10 11 12 12 11 11 11 11 11 10 10 9 9 9 9 9 9 9 9 9 9 9 8 8 8 8 8 8 8 8 7 7
10 9 8 9 10 10 10 10 9 8 9 9 9 10 12 11 11 11 11 11 11 10 9 9 9 8 8 8 8 8 8 8 8 8 8 8 8 8 8 7 7 7 7 7
9 8 7 8 8 8 8 9 9 9 8 7 8 10 11 11 11 11 11 11 10 10 9 9 8 8 8 8 8 8 8 8 8 8 8 8 7 7 7 7 7 7 7 6
9 8 7 8 9 8 8 8 9 8 6 7 8 10 10 10 10 10 10 10 10 9 9 8 8 8 8 8 8 8 8 7 7 7 7 7 7 7 7 6 6 6 6 6
8 7 8 8 9 9 8 8 8 7 7 7 8 10 11 10 9 10 10 10 9 9 8 8 8 8 7 7 7 7 7 7 7 7 7 7 7 6 6 6 6 6 6 6
7 6 7 7 7 8 7 7 8 7 8 8 8 9 10 10 10 9 9 9 9 8 8 8 7 7 7 7 7 7 7 7 7 7 6 6 6 6 6 6 5 5 5 5
6 6 6 6 7 6 5 7 7 7 8 8 7 8 9 8 8 8 8 8 8 8 8 7 7 7 7 7 6 6 6 6 6 6 6 6 5 5 5 5 5 5 5 4
6 6 5 5 5 5 7 9 8 8 8 8 8 8 8 7 8 8 8 7 7 7 7 6 6 6 6 6 6 6 6 6 5 5 5 5 5 5 5 5 4 4 4 4
6 6 5 4 5 6 8 7 7 7 6 7 7 7 7 7 7 7 7 7 6 6 6 6 6 6 6 6 6 5 5 5 5 5 4 4 4 4 4 4 4 4 4 4
5 5 4 4 4 5 7 6 7 7 5 6 6 6 6 6 4 5 6 6 6 5 5 5 5 5 5 5 5 5 5 4 4 4 4 4 4 4 3 3 3 3 3 3
3 3 3 3 4 5 6 6 6 5 5 6 6 6 6 5 5 5 5 5 5 5 5 5 5 4 4 4 4 4 4 4 4 3 3 3 3 3 3 3 3 3 3 3
3 3 3 3 3 4 5 5 4 5 5 5 5 5 5 5 5 5 5 5 4 4 4 4 4 4 4 4 4 3 3 3 3 3 3 3 2 2 2 2 2 2 2 2
4 4 4 4 4 5 5 5 5 5 5 5 4 4 4 4 4 4 4 4 4 4 4 4 3 3 3 3 3 3 3 3 2 2 2 2 2 2 2 2 2 2 2 1
4 4 4 4 4 5 5 5 5 4 4 4 4 3 3 3 3 3 3 3 3 3 3 3 3 3 3 2 2 2 2 2 2 2 2 2 1 1 1 1 1 1 1 1
4 3 3 3 4 5 5 4 4 4 3 3 3 3 3 2 2 2 2 2 2 2 2 2 2 2 2 2 2 2 1 1 1 1 1 1 1 1 1 1 1 1 1 0
3 3 2 2 3 3 3 4 3 3 3 2 2 2 2 2 2 2 2 1 2 1 1 1 1 1 1 1 1 1 1 1 1 1 1 1 0 0 -0 0 0 0 -0 -0